Weather observations for the past three days for
Hatteras, Mitchell Field
Metric (Imperial)
Date Time (edt) Wind (kph) Vis. (km) Weather Sky Cond. Temperature (ºC) Relative Humidity Wind Chill (°C) Heat Index (°C) Pressure Precipitation (cm)
Air Dwpt 6 hour altimeter (cm) sea level (mb) 1 hr 3 hr 6 hr
Max. Min.
01 18:51 S 13 16.09 Fair CLR 28.3 22.8 72% 32 76.3 1017.0
01 17:51 S 15 16.09 Fair CLR 29.4 23.3 70% 34 76.28 1017.0
01 16:51 S 13 16.09 Fair CLR 30 23.9 70% 35 76.3 1017.1
01 15:51 S 13 16.09 Fair CLR 30.6 23.9 67% 36 76.33 1017.5
01 14:51 S 11 16.09 Fair CLR 30.6 23.9 67% 36 76.35 1017.8
01 13:51 Vrbl 7 16.09 Fair CLR 30.6 23.9 30.6 25.6 67% 36 76.38 1018.4
01 12:51 SW 11 16.09 Fair CLR 29.4 23.9 72% 34 76.4 1018.4
01 11:51 NW 7 16.09 Fair CLR 29.4 23.3 70% 34 76.4 1018.5
01 10:51 NW 9 16.09 Fair CLR 28.9 24.4 77% 34 76.43 1019.0
01 09:51 Vrbl 9 16.09 Mostly Cloudy BKN016 28.9 24.4 77% 34 76.43 1018.9
01 08:51 Calm 16.09 A Few Clouds FEW021 28.3 23.9 77% 32 76.43 1018.9
01 07:51 Calm 16.09 A Few Clouds FEW018 25.6 25 25.6 22.2 97% 27 76.4 1018.4
01 06:51 Calm 14.48 A Few Clouds FEW020 23.9 23.3 96% 23 76.38 1018.1
01 05:51 Calm 16.09 Partly Cloudy SCT018 SCT022 23.3 22.8 97% 76.35 1017.8
01 04:51 Calm 16.09 A Few Clouds FEW016 22.8 22.2 96% 76.35 1017.9
01 03:51 Calm 16.09 Fair CLR 22.8 22.2 96% 76.38 1018.1
01 02:51 Calm 16.09 Fair CLR 23.3 22.8 97% 76.38 1018.3
01 01:51 Calm 16.09 Fair CLR 23.3 22.8 26.1 22.8 97% 76.4 1018.5
01 00:51 Calm 16.09 Fair CLR 23.3 22.2 94% 76.4 1018.7
31 23:51 Calm 16.09 Fair CLR 23.3 22.8 97% 76.43 1018.8
31 22:51 Calm 16.09 Fair CLR 23.9 22.8 94% 23 76.43 1018.8
31 21:51 Calm 16.09 Fair CLR 23.9 22.8 94% 23 76.43 1018.9
31 20:51 SE 7 16.09 Fair CLR 25.6 23.3 87% 27 76.4 1018.5
31 19:51 E 7 16.09 Fair CLR 25.6 22.8 31.1 25.6 85% 27 76.4 1018.4
31 18:51 SE 9 16.09 Fair CLR 27.8 23.3 77% 31 76.4 1018.5
31 17:51 SE 11 16.09 Fair CLR 28.9 22.8 70% 32 76.4 1018.6
31 16:51 SE 9 16.09 Fair CLR 29.4 22.8 68% 33 76.38 1018.2
31 15:51 Vrbl 7 16.09 Fair CLR 30.6 22.8 63% 35 76.4 1018.6
31 14:51 SE 9 16.09 Fair CLR 30.6 22.2 61% 34 76.45 1019.3
31 13:51 Vrbl 6 12.87 Partly Cloudy SCT029 30.6 23.3 30.6 26.7 65% 35 76.48 1019.6
31 12:51 E 7 16.09 A Few Clouds FEW027 29.4 22.2 65% 33 76.5 1020.0
31 11:51 Vrbl 7 16.09 Fair CLR 29.4 22.2 65% 33 76.53 1020.2
31 10:51 Vrbl 7 16.09 Fair CLR 28.9 23.3 72% 33 76.53 1020.2
31 09:51 Vrbl 6 16.09 Fair CLR 28.3 23.3 74% 32 76.48 1019.7
31 08:51 Vrbl 6 16.09 Partly Cloudy SCT014 27.8 24.4 82% 32 76.48 1019.4
31 07:51 Calm 16.09 Fair CLR 26.7 24.4 26.7 23.3 87% 30 76.43 1018.9
31 06:51 N 6 16.09 A Few Clouds FEW011 25.6 24.4 93% 27 76.45 1019.2
31 05:51 N 6 16.09 Fair CLR 24.4 23.3 94% 24 76.43 1018.8
31 04:51 NW 6 16.09 Fair CLR 23.3 22.8 97% 76.4 1018.5
31 03:51 Calm 16.09 Fair CLR 23.9 23.3 96% 23 76.4 1018.7
31 02:51 N 6 16.09 Fair CLR 23.9 22.8 94% 23 76.43 1019.0
31 01:51 Calm 14.48 Fair CLR 23.3 22.8 26.7 23.3 97% 76.48 1019.6
31 00:51 Calm 16.09 Fair CLR 23.9 23.3 96% 23 76.5 1019.9
30 23:51 Calm 16.09 Fair CLR 23.9 23.3 96% 23 76.5 1019.8
30 22:51 Calm 16.09 Fair CLR 24.4 23.3 94% 24 76.53 1020.1
30 21:51 S 6 16.09 Fair CLR 25 23.3 90% 26 76.5 1020.0
30 20:51 Calm 16.09 Fair CLR 25.6 23.3 87% 27 76.5 1019.8
30 19:51 S 6 16.09 Fair CLR 26.1 23.3 31.1 26.1 85% 28 76.5 1019.7
30 18:51 S 15 16.09 Mostly Cloudy FEW018 BKN026 27.2 23.9 82% 30 76.5 1020.0
30 17:51 S 13 16.09 Mostly Cloudy SCT024 BKN110 28.3 24.4 79% 33 76.56 1020.4
30 16:51 SE 9 16.09 Fair CLR 28.3 24.4 79% 33 76.53 1020.1
30 15:51 SE 17 16.09 Fair CLR 30 24.4 72% 36 76.53 1020.2
30 14:51 SE 15 16.09 Fair CLR 30.6 24.4 70% 36 76.56 1020.4
30 13:51 SE 13 16.09 Fair CLR 30 24.4 31.1 26.1 72% 36 76.58 1021.0
30 12:51 SE 11 16.09 Fair CLR 30.6 23.9 67% 36 76.61 1021.2
30 11:51 Vrbl 6 16.09 A Few Clouds FEW026 29.4 22.8 68% 33 76.63 1021.5
30 10:51 SE 15 16.09 A Few Clouds FEW021 29.4 24.4 75% 35 76.66 1022.1
30 09:51 Vrbl 7 16.09 Fair CLR 27.8 23.9 79% 32 76.66 1022.0
30 08:51 NE 7 16.09 Fair CLR 27.2 23.9 82% 30 76.66 1022.1
30 07:51 Calm 16.09 A Few Clouds FEW080 26.1 23.9 26.1 23.3 88% 28 76.66 1021.9
30 06:51 NE 7 16.09 Fair CLR 23.9 22.8 94% 23 76.63 1021.7
30 05:51 Calm 16.09 Fair CLR 23.3 22.2 94% 76.63 1021.6
30 04:51 NE 7 16.09 Partly Cloudy SCT026 23.3 22.2 94% 76.61 1021.1
30 03:51 NE 7 16.09 Mostly Cloudy SCT028 BKN035 24.4 23.3 94% 24 76.61 1021.1
30 02:51 NE 6 16.09 Fair CLR 24.4 22.8 91% 24 76.61 1021.4
30 01:51 NE 7 16.09 Fair CLR 24.4 23.3 24.4 23.9 94% 24 76.66 1021.8
30 00:51 NE 6 16.09 Fair CLR 24.4 22.8 91% 24 76.68 1022.3
29 23:51 E 6 16.09 Fair CLR 23.9 23.3 96% 23 76.68 1022.3
29 22:51 E 7 16.09 A Few Clouds FEW090 24.4 23.3 94% 24 76.63 1021.6
29 21:51 E 6 16.09 Fair CLR 24.4 23.3 94% 24 76.63 1021.6
29 20:51 Calm 16.09 Overcast OVC050 24.4 23.3 94% 24 76.63 1021.5
29 19:51 NE 6 16.09 A Few Clouds FEW050 23.9 22.8 26.7 23.9 94% 23 76.58 1020.8
Date Time (edt) Wind (kph) Vis. (km) Weather Sky Cond. Air Dwpt Max. Min. Relative Humidity Wind Chill (°C) Heat Index (°C) altimeter (cm) sea level (mb) 1 hr 3 hr 6 hr
6 hour
Temperature (ºC) Pressure Precipitation (cm)